This is the latest recevied weather packets stored in our database for station/object CQ0XVC-11. If no packets are shown the sender has not sent any weather packets the latest 1 day(s).
| Time | Temp. | Humidity | Pressure | Rain* | Wind** | Luminosity | Snow |
|---|---|---|---|---|---|---|---|
| 1778016941 | 10.56° C | 62% | 1004.1 hPa | 0 mm | 0.45 m/s, 90° | - | - |
| 1778016639 | 10.56° C | 63% | 1004.1 hPa | 0 mm | 0.89 m/s, 135° | - | - |
| 1778016381 | 10.56° C | 63% | 1004.2 hPa | 0 mm | 0.45 m/s, 90° | - | - |
| 1778016337 | 10.56° C | 63% | 1004.2 hPa | 0 mm | 0.45 m/s, 90° | - | - |
| 1778016072 | 10.56° C | 63% | 1004 hPa | 0 mm | 0.45 m/s, 45° | - | - |
| 1778016036 | 10.56° C | 63% | 1004 hPa | 0 mm | 0.45 m/s, 45° | - | - |
| 1778015732 | 11.11° C | 63% | 1004.2 hPa | 0 mm | 0.89 m/s, 45° | - | - |
| 1778015128 | 11.11° C | 61% | 1004.3 hPa | 0 mm | 0.45 m/s, 67° | - | - |
| 1778014880 | 11.11° C | 61% | 1004.2 hPa | 0 mm | 0.45 m/s, 90° | - | - |
| 1778014826 | 11.11° C | 61% | 1004.2 hPa | 0 mm | 0.45 m/s, 90° | - | - |
| 1778014562 | 11.11° C | 60% | 1004.1 hPa | 0 mm | 0 m/s | - | - |
| 1778014523 | 11.11° C | 60% | 1004.1 hPa | 0 mm | 0 m/s | - | - |
| 1778014256 | 11.11° C | 61% | 1004.2 hPa | 0 mm | 0.45 m/s, 67° | - | - |
| 1778014222 | 11.11° C | 61% | 1004.2 hPa | 0 mm | 0.45 m/s, 67° | - | - |
| 1778013919 | 11.11° C | 59% | 1004.2 hPa | 0 mm | 0.45 m/s, 135° | - | - |
| 1778013669 | 11.11° C | 60% | 1004.2 hPa | 0 mm | 0 m/s | - | - |
| 1778013617 | 11.11° C | 60% | 1004.2 hPa | 0 mm | 0 m/s | - | - |
| 1778013315 | 11.11° C | 59% | 1004.1 hPa | 0 mm | 1.34 m/s, 292° | - | - |
| 1778013073 | 11.11° C | 59% | 1004 hPa | 0 mm | 0.45 m/s, 67° | - | - |
| 1778013013 | 11.11° C | 59% | 1004 hPa | 0 mm | 0.45 m/s, 67° | - | - |
| 1778012454 | 11.67° C | 57% | 1004 hPa | 0 mm | 0.45 m/s, 56° | - | - |
| 1778012406 | 11.67° C | 57% | 1004 hPa | 0 mm | 0.45 m/s, 56° | - | - |
| 1778012134 | 11.67° C | 57% | 1003.8 hPa | 0 mm | 0.89 m/s, 123° | - | - |
| 1778012103 | 11.67° C | 57% | 1003.8 hPa | 0 mm | 0.89 m/s, 123° | - | - |
| 1778011859 | 11.67° C | 56% | 1003.8 hPa | 0 mm | 0.45 m/s, 90° | - | - |
* Rain since midnight (hover to see other rain measurements)
** Current wind speed in m/s (hover to see current wind gust speed)